Probability
0 0 0 0 0 0 0 0 0 0 0 1 0 0 1 1 1 1 1 1 3 4 3 1 0 0 0 1 1 0 0 0 0 0 0 0 0 0 0 0 0 0 0 0 0 0 0 0 0
0 0 0 0 0 0 0 0 1 1 1 1 1 0 1 2 2 2 1 2 4 5 3 1 0 0 1 2 2 1 0 0 0 0 0 0 0 0 0 0 0 0 0 0 0 0 0 0 0
0 0 0 0 0 0 0 1 2 3 3 2 1 1 2 2 1 1 2 4 6 7 5 3 3 3 3 3 3 2 1 1 0 0 0 0 0 0 0 0 0 0 0 0 0 0 0 0 0
0 0 0 0 0 0 0 2 4 5 4 3 1 1 3 3 2 1 4 8 12 14 11 8 7 6 5 4 3 2 2 1 0 0 0 0 0 0 0 0 0 0 0 0 0 0 0 0 0
0 0 0 0 0 0 1 3 6 8 7 5 4 4 5 5 3 2 7 15 22 24 19 12 9 7 5 3 2 1 1 1 0 0 0 0 0 0 0 0 0 0 0 0 0 0 0 0 0
0 0 0 0 0 0 2 4 8 11 11 10 8 5 4 5 6 7 14 25 33 34 26 15 9 6 5 4 2 1 0 0 0 0 0 0 0 0 0 0 0 0 0 0 0 0 0 0 0
0 0 0 0 0 0 1 3 6 10 12 11 8 5 4 5 11 18 28 38 40 37 29 18 10 5 5 5 4 2 1 0 0 0 0 0 0 0 0 0 0 0 0 0 0 0 0 0 0
0 0 0 0 0 0 0 1 3 6 9 9 6 4 4 8 17 29 40 45 41 33 26 18 10 5 5 5 5 5 3 1 1 0 0 0 0 0 0 0 0 0 0 0 0 0 0 0 0
0 0 0 0 0 0 0 0 1 4 6 6 5 5 10 19 27 34 40 39 32 24 18 12 8 5 5 5 5 5 4 2 1 0 0 0 0 0 0 0 0 0 0 0 0 0 0 0 0
0 0 0 0 0 0 0 1 3 5 5 5 6 11 22 32 33 30 27 25 21 17 12 8 6 6 6 6 5 4 4 3 2 0 0 0 0 0 0 0 0 0 0 0 0 0 0 0 0
0 0 0 0 0 0 1 1 3 5 4 5 10 22 35 39 33 23 16 13 11 9 7 5 5 5 5 5 4 3 2 2 1 0 0 0 0 0 0 0 0 0 0 0 0 0 0 0 0
0 0 0 0 1 1 2 3 3 3 2 5 15 30 40 38 29 19 12 7 4 3 2 2 3 3 2 1 1 1 1 1 0 0 0 0 0 0 0 0 0 0 0 0 0 0 0 0 0
0 0 0 0 1 2 3 3 3 2 2 6 16 28 35 33 27 21 13 6 2 0 0 1 2 2 1 0 0 0 0 0 0 0 0 0 0 0 0 0 0 0 0 0 0 0 0 0 0
0 0 0 0 1 2 2 3 3 2 3 7 13 21 26 27 27 24 16 7 2 0 1 1 1 1 0 0 0 0 0 0 0 0 0 0 0 0 0 0 0 0 0 0 0 0 0 0 0
0 0 0 0 0 1 2 3 3 3 4 6 10 14 18 21 22 20 15 8 3 0 1 1 1 0 0 0 0 0 0 0 0 0 0 0 0 0 0 0 0 0 0 0 0 0 0 0 0
0 0 0 0 0 0 1 2 3 3 3 5 7 10 12 15 15 14 13 9 4 2 1 1 0 0 0 0 0 0 0 0 0 0 0 0 0 0 0 0 0 0 0 0 0 0 0 0 0
0 0 0 0 0 0 0 1 3 3 3 3 5 6 7 9 11 12 12 10 7 5 4 2 1 0 0 0 0 0 0 0 0 0 0 0 0 0 0 0 0 0 0 0 0 0 0 0 0
0 0 0 0 0 0 0 1 2 2 3 3 3 3 4 6 9 10 10 10 9 8 5 3 1 0 0 0 0 0 0 0 0 0 0 0 0 0 0 0 0 0 0 0 0 0 0 0 0
0 0 0 0 0 0 0 0 1 1 1 2 2 1 1 3 7 8 8 9 8 7 5 2 0 0 0 0 0 0 0 0 0 0 0 0 0 0 0 0 0 0 0 0 0 0 0 0 0
0 0 0 0 0 0 0 0 0 0 0 1 1 0 0 1 4 6 7 8 7 4 3 1 0 0 0 0 0 0 0 0 0 0 0 0 0 0 0 0 0 0 0 0 0 0 0 0 0
0 0 0 0 0 0 0 0 0 0 0 0 0 0 0 0 2 4 6 6 5 2 1 0 0 0 0 0 0 0 0 0 0 0 0 0 0 0 0 0 0 0 0 0 0 0 0 0 0
0 0 0 0 0 0 0 0 0 0 0 0 0 0 0 0 1 2 3 4 3 1 0 0 0 0 0 0 0 0 0 0 0 0 0 0 0 0 0 0 0 0 0 0 0 0 0 0 0
0 0 0 0 0 0 0 0 0 0 0 0 0 0 0 0 0 1 2 2 2 1 0 0 0 0 0 0 0 0 0 0 0 0 0 0 0 0 0 0 0 0 0 0 0 0 0 0 0
0 0 0 0 0 0 0 0 0 0 0 0 0 0 0 0 0 0 1 1 1 0 0 0 0 0 0 0 0 0 0 0 0 0 0 0 0 0 0 0 0 0 0 0 0 0 0 0 0
0 0 0 0 0 0 0 0 0 0 0 0 0 0 0 0 0 0 0 0 0 0 0 0 0 0 0 0 0 0 0 0 0 0 0 0 0 0 0 0 0 0 0 0 0 0 0 0 0
0 0 0 0 0 0 0 0 0 0 0 0 0 0 0 0 0 0 0 0 0 0 0 0 0 0 0 0 0 0 0 0 0 0 0 0 0 0 0 0 0 0 0 0 0 0 0 0 0
0 0 0 0 0 0 0 0 0 0 0 0 0 0 0 0 0 0 0 0 0 0 0 0 0 0 0 0 0 0 0 0 0 0 0 0 0 0 0 0 0 0 0 0 0 0 0 0 0
0 0 0 0 0 0 0 0 0 0 0 0 0 0 0 0 0 0 0 0 0 0 0 0 0 0 0 0 0 0 0 0 0 0 0 0 0 0 0 0 0 0 0 0 0 0 0 0 0
0 0 0 0 0 0 0 0 0 0 0 0 0 0 0 0 0 0 0 0 0 0 0 0 0 0 0 0 0 0 0 0 0 0 0 0 0 0 0 0 0 0 0 0 0 0 0 0 0
0 0 0 0 0 0 0 0 0 0 0 0 0 0 0 0 0 0 0 0 0 0 0 0 0 0 0 0 0 0 0 0 0 0 0 0 0 0 0 0 0 0 0 0 0 0 0 0 0
Wind_Speed
5 3 1 1 3 4 1 1 1 2 1 1 3 4 3 1 1 2 1 6 12 11 8 11 13 14 14 14 15 15 14 14 13 13 12 12 11 11 10 9 9 8 8 8 8 8 8 8 8
3 2 0 2 3 2 1 2 2 2 3 3 3 3 4 3 2 3 3 6 11 10 7 9 13 13 14 14 14 14 13 13 12 12 11 10 10 9 9 8 8 7 7 7 7 7 7 7 7
4 1 2 3 2 2 2 3 4 3 3 4 3 2 3 2 2 3 5 10 10 8 6 9 15 14 14 13 13 13 13 12 12 11 10 10 9 8 8 7 7 6 6 6 6 6 6 6 6
2 2 3 3 1 3 3 4 7 7 2 2 4 3 2 1 3 6 12 12 11 7 6 8 14 14 14 13 13 13 12 12 11 10 10 9 8 7 7 6 6 5 5 5 5 5 5 5 5
3 3 4 3 3 3 2 4 8 6 4 3 4 3 2 2 7 12 12 12 11 7 6 8 14 14 14 14 13 13 12 11 10 9 9 8 7 7 6 5 5 5 5 4 4 4 4 4 4
3 4 4 1 4 2 2 1 5 5 4 4 4 3 1 4 10 12 11 10 8 8 6 7 14 15 14 14 13 12 12 11 10 9 8 7 6 5 5 5 5 5 4 4 4 4 4 3 3
3 3 2 2 3 2 1 1 1 3 4 4 4 4 2 5 7 10 10 8 7 6 6 5 6 9 12 13 12 12 11 10 9 8 7 6 6 5 5 5 5 6 5 5 5 5 4 4 2
4 4 0 2 3 3 2 1 0 2 2 1 2 4 5 6 8 10 10 8 6 5 5 5 5 5 5 6 11 11 10 9 8 7 6 5 4 4 4 4 5 6 6 6 6 6 6 5 4
4 4 2 4 4 3 4 3 1 1 2 1 1 1 4 12 12 12 11 8 7 6 4 5 5 5 5 4 6 7 7 6 5 4 4 3 2 2 1 3 5 7 7 7 7 6 6 5 4
4 2 6 5 4 4 6 5 5 3 2 2 2 1 8 13 13 14 13 12 10 8 6 4 5 5 4 4 4 3 4 4 4 3 4 3 2 2 3 3 3 3 5 6 6 6 6 3 1
5 6 5 3 2 4 6 4 4 5 4 5 5 8 11 12 11 12 11 11 10 8 7 5 5 5 4 4 4 3 3 3 3 4 4 3 3 2 3 2 3 3 2 1 1 1 1 1 1
4 5 3 2 0 3 5 5 3 4 3 1 4 9 11 12 11 10 10 9 7 7 6 5 5 4 4 4 4 3 3 3 3 3 3 3 2 3 3 2 2 2 1 1 1 1 0 0 1
3 2 0 1 3 3 4 3 2 1 1 3 7 9 9 9 8 7 6 7 6 6 6 5 6 5 5 5 4 4 3 3 3 2 3 3 3 3 2 2 2 3 2 2 1 1 1 0 0
2 1 0 1 2 2 4 2 1 1 3 5 7 8 7 7 7 6 7 7 6 6 6 5 6 6 6 5 4 4 3 3 3 2 3 3 3 2 3 3 3 3 3 2 2 2 2 1 1
0 1 2 0 1 2 4 1 2 1 4 5 6 6 6 6 7 6 8 7 7 7 6 6 7 6 7 6 5 4 3 3 3 2 2 3 3 3 3 3 3 3 3 3 3 3 3 2 2
2 2 2 3 2 2 3 3 2 3 5 4 4 4 4 4 5 5 6 5 6 6 6 6 7 7 6 6 5 4 3 3 2 2 2 3 4 4 4 3 3 3 3 3 3 3 3 3 2
3 2 4 3 2 3 3 3 1 2 4 4 3 4 4 5 5 5 6 6 5 6 6 5 6 7 6 5 4 4 3 3 2 2 2 2 3 4 4 3 3 3 3 3 3 3 2 2 2
4 4 4 3 1 2 2 2 1 2 3 3 3 4 4 5 6 6 6 6 5 5 5 5 6 6 6 5 4 3 3 2 1 1 1 2 2 3 3 3 3 3 3 3 3 4 3 2 2
4 3 5 3 0 2 1 2 2 2 2 3 3 4 5 5 5 5 6 6 6 5 6 6 7 6 5 4 3 3 2 1 1 1 1 2 2 3 3 3 3 3 3 3 2 2 4 4 2
4 3 4 1 2 2 1 2 2 3 3 4 5 6 6 5 6 6 6 6 7 7 7 6 7 7 6 4 3 3 3 2 1 1 1 1 2 2 2 3 2 2 3 3 3 3 2 3 3
3 4 3 2 2 4 2 3 1 2 2 2 4 5 5 7 8 8 8 7 7 7 8 8 7 7 6 5 4 3 3 2 1 1 1 1 2 2 2 3 3 2 2 2 2 2 3 2 3
3 2 3 4 3 3 3 3 4 2 2 4 5 5 6 5 6 7 8 8 9 9 7 7 6 6 5 6 5 5 4 3 4 2 2 2 2 2 3 3 3 3 2 2 1 2 2 2 1
2 4 5 4 4 2 3 1 6 0 3 6 7 8 7 7 8 8 9 10 9 8 7 6 6 5 5 5 6 5 3 3 2 1 2 2 1 2 3 4 3 3 2 2 2 2 2 1 1
6 6 6 5 5 3 2 0 6 4 6 5 7 8 8 8 8 7 7 7 7 7 6 6 6 6 5 6 6 6 6 5 4 3 3 2 1 2 3 4 4 3 3 3 2 2 2 2 2
4 6 5 6 5 4 2 1 8 6 6 7 9 10 9 9 9 8 8 8 8 8 8 7 8 7 6 6 6 7 7 7 6 5 5 4 3 3 4 4 4 3 4 3 3 3 2 2 2
3 6 6 3 4 5 2 4 8 5 3 4 6 7 8 8 9 10 10 10 10 10 9 8 9 8 7 8 7 6 6 5 4 5 5 5 4 4 4 5 5 5 4 4 3 2 3 2 3
5 3 4 6 2 2 5 6 8 1 2 4 5 7 9 10 10 10 10 10 10 10 10 10 10 9 8 9 8 7 7 7 6 6 5 4 4 3 4 5 5 5 5 4 4 3 3 3 3
5 8 5 5 3 2 5 4 5 4 4 5 6 8 9 9 9 10 9 10 10 10 9 8 9 10 9 9 9 8 8 8 7 5 6 6 5 4 4 5 5 5 5 5 4 4 4 4 4
4 4 5 4 4 5 2 7 5 6 5 7 8 9 9 10 11 11 11 10 10 9 8 9 9 9 9 10 9 8 8 8 7 7 7 6 5 6 6 6 6 6 6 5 5 6 5 6 5
2 5 7 4 3 4 3 9 4 3 4 5 6 7 7 9 10 10 10 8 8 9 10 10 10 10 11 10 9 9 8 8 8 8 8 7 7 6 7 6 6 7 7 6 6 7 6 7 7
Wind_Direction
163 140 123 43 56 50 353 251 151 134 104 123 123 106 103 49 267 272 54 128 130 137 148 155 152 146 140 134 130 128 127 127 127 128 128 130 131 131 131 130 128 125 121 117 113 112 109 106 104
138 153 45 56 79 59 289 186 147 150 157 138 92 81 73 58 42 99 122 133 133 136 141 153 152 147 143 137 134 132 132 131 131 132 133 135 136 137 137 136 134 130 126 122 120 118 115 109 103
155 179 81 69 90 172 219 191 166 130 122 127 104 78 91 120 149 142 147 135 124 128 136 155 151 148 145 141 138 137 136 136 138 140 142 143 145 146 146 145 144 141 137 133 128 123 119 114 105
133 56 55 68 263 233 211 193 167 150 134 124 139 117 115 109 150 144 140 136 128 126 134 151 150 149 147 144 142 141 142 143 145 148 149 152 154 155 157 159 157 154 153 147 139 134 128 121 109
68 76 53 17 284 267 258 196 169 162 161 146 135 119 120 63 116 134 138 139 136 131 136 148 150 149 148 146 146 146 147 148 149 152 156 159 164 168 171 175 173 171 170 168 162 154 146 137 120
65 68 74 314 284 281 343 20 146 143 143 144 134 126 128 128 134 140 138 135 137 134 131 142 150 149 148 148 148 149 150 151 153 156 160 165 169 177 184 189 193 194 195 194 187 181 174 164 142
107 100 153 245 272 275 210 33 130 144 152 170 148 135 143 150 146 138 129 122 123 122 120 123 137 145 148 149 150 151 151 152 154 158 164 170 181 191 201 207 213 214 213 213 213 207 202 197 188
134 102 320 262 242 246 163 96 64 123 157 134 146 162 185 167 140 127 121 118 118 114 116 116 115 118 128 142 150 150 150 151 154 159 167 176 191 207 224 227 234 233 228 224 225 225 223 217 213
105 76 251 233 218 219 160 155 154 72 117 183 228 227 159 140 136 131 132 133 139 136 121 119 118 118 121 130 143 140 138 134 126 118 113 93 41 18 330 286 253 242 238 233 234 239 238 230 223
111 164 236 226 215 184 172 176 166 153 183 215 209 168 130 141 146 149 154 156 159 160 156 139 130 126 124 126 103 89 85 81 81 79 77 69 55 26 22 355 323 270 252 244 241 250 252 239 190
173 208 244 261 238 162 160 161 158 161 210 224 192 160 147 151 156 158 162 164 164 162 164 155 142 133 126 113 107 95 88 84 79 80 82 77 62 41 30 21 8 3 4 1 289 264 270 197 169
193 248 242 283 3 142 153 147 160 196 224 238 161 155 153 155 161 163 164 162 156 158 165 156 146 135 124 112 109 107 101 92 83 77 82 81 68 51 38 35 24 26 27 44 55 55 341 293 212
214 264 283 84 70 100 108 121 153 218 37 106 132 144 152 155 158 158 156 154 153 159 161 159 148 138 127 116 117 112 108 104 100 87 73 82 83 69 54 39 34 31 36 52 55 60 72 39 352
232 221 193 63 82 108 120 109 100 230 120 120 133 146 145 141 144 152 156 161 165 163 159 156 148 141 132 126 125 125 120 116 105 93 88 85 87 83 71 54 39 30 31 45 65 77 86 62 33
43 34 353 336 125 136 116 96 245 187 125 130 136 142 138 140 144 160 168 170 167 165 158 154 149 137 132 130 133 131 127 121 113 109 99 94 90 85 80 67 49 28 30 51 60 60 64 61 47
32 38 323 272 160 159 149 235 221 157 143 147 144 140 135 138 145 153 160 160 161 153 150 157 152 138 134 134 134 130 127 128 123 116 102 94 89 87 78 70 52 32 42 53 64 52 57 45 38
18 328 285 297 165 144 161 236 220 162 153 155 150 147 148 143 144 153 156 158 155 151 148 150 141 139 135 129 122 121 123 123 119 112 104 96 89 84 80 71 53 45 54 48 59 56 60 42 16
267 276 277 277 243 144 178 242 200 182 184 176 162 168 167 166 168 163 159 155 149 150 147 148 141 137 128 115 103 97 98 100 103 116 119 110 98 93 87 77 58 55 63 52 56 65 52 43 359
234 243 268 277 101 130 205 248 233 198 210 198 183 186 191 180 158 154 158 161 154 158 158 162 151 149 140 132 135 134 154 161 160 175 152 134 120 108 96 86 69 63 67 60 64 78 54 30 2
220 248 266 323 45 83 9 297 249 206 217 208 196 198 203 175 160 162 167 170 172 178 176 169 164 163 164 153 145 144 140 151 162 160 158 171 149 141 121 113 101 86 82 64 52 67 73 27 20
227 206 226 191 69 44 21 340 285 249 224 213 206 197 196 184 172 171 178 182 180 186 186 181 179 172 167 150 121 98 82 72 86 164 208 211 183 167 141 139 124 106 97 87 65 65 87 71 23
268 252 154 114 88 350 20 313 293 250 238 221 210 202 202 194 180 180 184 186 192 195 189 182 179 174 169 160 157 153 159 175 199 193 198 203 192 185 169 157 144 128 116 111 88 80 82 100 55
151 67 82 87 100 33 16 3 294 290 237 233 215 207 206 198 194 195 192 192 195 190 184 183 178 181 176 172 170 160 163 175 162 161 190 204 214 210 188 172 162 154 151 151 130 112 101 102 116
122 77 59 53 63 9 320 56 287 241 220 214 207 203 200 195 194 195 189 184 191 188 183 180 183 195 185 179 175 176 176 172 167 185 198 207 217 228 203 183 178 175 173 176 171 157 145 145 137
84 83 26 0 8 274 275 247 256 250 224 199 194 197 195 192 191 192 190 191 195 194 192 187 190 202 192 187 189 189 186 181 188 193 198 197 205 216 211 190 187 188 191 190 180 176 182 177 172
168 137 154 209 240 286 317 259 258 261 237 196 186 184 188 194 194 197 200 200 201 200 198 193 197 205 194 195 199 193 187 186 197 199 194 199 205 214 205 195 197 202 198 196 188 194 204 196 198
139 156 153 128 138 315 294 288 301 256 195 186 185 183 194 201 201 203 202 202 204 204 203 199 200 205 201 201 196 194 193 194 201 202 200 204 211 214 205 200 203 208 207 204 195 211 221 208 215
126 138 100 112 138 279 304 290 266 257 216 198 195 202 207 202 205 209 208 206 207 208 207 200 201 207 205 199 199 201 198 200 198 192 201 207 210 209 200 206 210 214 216 210 205 220 224 220 227
109 96 101 108 144 155 260 278 243 236 220 207 209 208 206 202 205 209 211 210 208 206 203 202 204 206 203 202 201 199 198 196 193 199 208 205 205 203 207 209 210 214 220 216 212 226 225 227 237
156 161 148 150 202 168 181 267 291 264 249 223 225 224 217 211 209 210 210 204 202 205 205 206 205 206 208 202 197 201 197 191 197 208 211 204 206 208 210 209 211 218 222 218 217 230 230 227 236